Location: Pabrico
(37.5827°N, 122.0063°W)
Time: 14:04:38
(UTC+00:00)

ARGOS - Visible Passes

Search period start: 12 July 2024 00:00
Search period end: 22 July 2024 00:00
Orbit: 820 x 833 km, 98.4° (Epoch: 12 July)

Date Brightness Start Highest point End Pass type
(mag) Time Alt. Az. Time Alt. Az. Time Alt. Az.
14 Jul 5.2 12:12:03 10° NE 12:16:41 28° E 12:21:16 10° SSE visible
15 Jul 5.7 11:53:52 10° NE 11:57:37 19° E 12:01:20 10° SE visible
16 Jul 6.0 11:36:28 10° ENE 11:38:28 12° E 11:40:29 10° ESE visible
19 Jul 4.9 12:17:31 10° NNE 12:22:21 32° E 12:27:08 10° SSE visible
20 Jul 5.5 11:59:12 10° NE 12:03:17 22° E 12:07:20 10° SE visible
21 Jul 5.8 11:41:24 10° ENE 11:44:10 14° E 11:46:55 10° ESE visible
